Location: College Rock
(37.2713°N, 119.1740°W)
Time: 04:04:13
(UTC+00:00)

Cosmos 1428 Rocket - Pass Details

Date: 29 October 2020
Orbit: 947 x 989 km, 82.9° (Epoch: 23 November)

Event Time Altitude Azimuth Distance (km) Brightness Sun altitude
Rises 12:44:38 0° 185° (S) 3,665 7.5 -19.3°
Reaches altitude 10° 12:47:08 10° 185° (S) 2,716 6.8 -18.8°
Maximum altitude 12:53:22 89° 273° (W) 975 4.4 -17.5°
Drops below altitude 10° 12:59:35 10° 6° (N) 2,703 6.8 -16.3°
Sets 13:02:05 0° 7° (N) 3,648 7.5 -15.8°
